Location: Boiro
(42.6475°N, 8.8834°W)
Time: 12:03:58
(UTC+02:00)

deb Agena D - Pass Details

Date: 05 July 2022
Orbit: 997 x 1025 km, 100.1° (Epoch: 16 August)

Event Time Altitude Azimuth Distance (km) Brightness Sun altitude
Exits shadow 03:12:36 17° 253° (WSW) 2,325 ? -24.1°
Maximum altitude 03:13:55 18° 269° (W) 2,267 ? -24.1°
Drops below altitude 10° 03:18:08 10° 311° (NW) 2,825 ? -24.0°
Sets 03:21:34 0° 329° (NNW) 3,781 ? -23.9°
